Terug naar catalogus

SATCOM 3

ActiefCommunicatieHEO
NORAD 11635·PAYLOAD·🇺🇸 United States

Gelanceerd Dec 7, 1979 vanaf Cape Canaveral Space Force Station

Loading…

Volgende Passages (komende 24 uur)

TLE

VersSource: Space-Track

Epoch: Sep 14, 2026, 08:25 UTC

1 11635U 79101A   26257.35116502 -.00000151  00000-0  00000-0 0  9997
2 11635   8.9384  73.3681 4820374 123.9632 281.1564  1.82526301225590

Volg SATCOM 3 in realtime met AllMySat

Download on the App Store